Temperature
19 19 19 19 19 20 21 23 24 24 25 26 26 26 25 24 22 20 19 19 19 19 19 19 19 19 19 18 18 18 18 18 18 18 18 18 18 18 18 18 19 19 19 19 19 19 19 19 19
19 19 19 19 20 21 22 23 24 24 25 26 26 26 25 23 21 20 19 19 19 19 18 19 19 18 18 18 18 18 18 18 18 18 18 18 18 18 18 18 18 18 18 18 18 18 18 19 19
19 19 19 20 21 22 22 24 24 25 25 26 26 25 24 22 21 19 19 19 19 18 18 18 18 18 18 18 18 18 18 18 18 18 18 18 18 18 18 18 18 18 18 18 18 18 18 18 18
19 19 20 21 22 24 24 24 25 26 26 26 26 24 22 21 20 19 19 19 19 18 18 18 18 18 18 18 18 18 18 18 18 18 18 18 18 18 18 18 18 18 18 18 18 18 18 18 18
19 20 21 22 23 24 25 25 26 26 26 26 25 23 21 20 20 19 19 19 19 18 18 18 18 18 18 18 18 18 17 17 17 17 17 17 17 17 18 18 18 18 18 18 18 18 18 18 18
20 21 21 22 23 24 25 26 26 26 26 26 25 24 21 20 20 19 19 19 19 18 18 18 18 18 18 18 17 17 17 17 17 17 17 17 17 17 17 17 17 17 17 17 17 18 18 18 18
20 21 22 23 23 24 25 25 25 26 26 26 25 24 21 20 20 19 19 19 19 19 18 18 18 18 17 17 17 17 17 17 17 17 17 17 17 17 17 17 17 17 17 17 17 17 18 18 18
21 21 23 23 23 23 25 25 25 25 25 25 25 24 22 20 20 20 19 19 19 19 19 18 18 17 17 17 17 17 16 16 16 16 16 16 16 16 16 16 16 16 17 17 17 17 17 17 17
21 21 22 23 23 24 25 25 25 25 25 25 25 24 22 21 20 20 19 19 19 19 19 19 18 18 17 17 17 16 16 16 16 16 16 16 16 16 16 16 16 16 16 16 17 17 17 17 17
22 21 22 24 24 24 25 26 26 26 25 25 24 23 22 21 21 20 20 20 20 19 19 19 18 18 18 17 17 16 16 16 16 15 15 15 15 16 16 16 16 16 16 16 16 16 17 17 17
23 23 23 24 24 25 26 26 26 26 25 25 24 23 22 22 21 21 21 21 20 20 19 19 19 18 18 17 17 16 16 16 16 15 15 15 15 15 15 15 15 15 16 16 16 16 16 17 17
23 24 25 25 25 25 26 26 26 26 25 25 24 23 22 22 22 22 22 21 21 20 19 19 19 18 18 17 17 17 16 16 16 15 15 15 15 15 15 15 15 15 15 16 16 16 16 16 16
24 24 25 25 25 25 25 26 26 26 25 25 24 23 23 23 23 22 22 21 21 20 19 19 18 18 18 17 17 17 16 16 16 15 15 15 15 15 15 15 15 15 15 15 15 15 16 16 16
25 25 25 25 26 26 26 26 26 26 25 25 24 24 23 23 23 23 22 22 21 20 19 19 18 18 17 17 17 16 16 16 16 15 15 15 15 15 15 15 15 15 15 15 15 15 15 16 16
25 25 26 26 26 26 26 25 25 25 25 25 24 24 24 23 23 23 22 22 21 20 20 19 18 17 17 16 16 16 16 16 15 15 15 15 15 14 14 14 14 15 15 15 15 15 15 15 16
25 25 24 25 26 26 25 24 26 26 25 25 25 24 24 23 23 23 22 22 21 20 20 19 18 17 17 16 16 16 16 15 15 15 15 14 14 14 14 14 14 14 14 14 15 15 15 15 15
25 24 24 25 26 26 25 25 26 26 26 25 25 25 24 24 23 23 22 22 21 20 20 19 18 17 16 16 16 15 15 15 15 15 14 14 14 14 14 14 14 14 14 14 14 14 15 15 15
23 24 25 25 25 26 25 25 26 26 26 26 26 25 25 24 24 23 22 22 21 20 19 19 18 17 16 16 16 15 15 15 15 14 14 14 13 13 13 14 14 14 14 14 14 14 14 15 15
25 24 24 25 26 26 26 26 26 27 26 26 26 26 25 25 24 23 22 21 21 20 19 19 18 17 16 16 15 15 15 15 15 14 14 13 13 13 13 13 13 13 13 13 14 14 14 14 15
24 24 24 26 26 26 26 26 27 27 27 27 27 27 26 26 25 23 22 21 20 20 19 19 18 17 16 16 15 15 15 15 15 14 14 13 13 13 13 13 13 13 13 13 13 13 14 14 14
25 25 24 25 26 26 26 26 27 28 28 27 27 27 27 26 25 23 22 21 20 20 19 19 18 17 16 15 15 15 15 15 14 14 14 13 13 13 13 13 13 13 13 13 13 13 14 14 14
24 25 26 25 25 24 26 25 27 28 27 27 27 26 26 26 25 24 22 21 20 20 19 18 17 17 16 15 15 15 15 15 14 14 14 14 13 13 13 13 13 13 13 13 13 13 13 13 14
25 26 26 26 25 25 26 26 27 27 27 27 27 26 26 26 25 24 23 22 21 20 19 18 17 17 16 15 15 15 14 14 14 14 14 14 14 13 13 13 13 13 13 13 13 13 13 13 13
26 26 26 26 25 24 26 26 26 27 27 27 27 27 26 25 25 24 23 21 21 20 19 18 17 16 16 15 15 15 14 14 14 14 14 14 14 14 13 13 13 13 13 13 13 13 13 13 13
26 25 24 24 24 24 27 26 26 27 28 28 27 27 26 25 24 23 22 21 20 19 18 18 17 16 16 15 15 15 15 14 14 14 14 14 14 14 13 13 13 13 12 12 13 13 13 13 13
26 26 24 22 23 25 26 26 27 28 28 27 27 26 26 25 24 23 22 21 20 19 18 17 17 16 16 15 15 15 15 15 15 14 14 14 14 14 13 13 13 13 13 12 13 12 13 13 13
26 26 27 25 25 25 26 27 27 27 27 27 27 26 25 25 24 23 22 21 20 19 18 18 17 16 16 16 15 15 15 15 15 14 14 14 14 14 13 13 13 13 13 13 13 12 12 13 13
27 27 26 25 24 23 25 26 26 26 27 27 27 26 26 25 24 23 22 21 20 19 18 18 17 17 16 16 16 15 15 15 15 14 14 14 14 14 13 13 13 13 13 13 13 13 13 12 13
26 26 26 26 25 24 23 24 27 27 27 27 27 27 26 25 24 23 22 21 20 19 18 18 17 17 16 16 16 16 15 15 15 14 14 14 14 14 14 14 14 13 13 13 13 13 12 12 12
27 27 26 24 24 24 23 25 28 27 27 27 27 27 26 25 24 23 22 21 20 20 19 18 18 17 17 16 16 16 15 15 15 15 14 14 14 14 14 14 14 14 13 13 13 13 13 13 12
Wind_Speed
10 8 4 1 2 3 2 1 3 4 4 5 6 8 12 12 8 7 3 5 11 13 13 12 11 9 8 8 7 6 5 4 4 4 3 3 3 3 3 3 3 4 4 4 4 4 4 5 5
7 6 3 2 2 2 1 2 5 5 2 2 6 10 12 10 10 8 5 6 10 12 13 13 11 10 9 8 7 7 6 5 4 4 4 4 3 4 4 4 4 5 4 4 3 3 4 4 4
7 5 2 3 3 1 2 4 5 4 2 3 6 10 8 6 8 5 6 7 11 13 14 13 12 10 10 9 8 7 6 5 4 3 2 2 3 4 5 5 5 5 5 4 4 3 3 3 3
4 3 3 4 5 1 4 4 4 3 4 4 6 9 7 7 6 8 8 9 12 12 14 13 12 11 9 8 7 6 5 4 3 2 1 1 2 3 4 5 6 6 6 5 4 4 4 4 4
3 3 3 4 2 2 4 4 2 3 5 6 9 11 9 11 12 11 9 9 11 11 12 12 11 10 8 7 6 5 4 3 2 1 1 2 4 5 5 6 7 7 7 6 5 5 5 5 4
2 3 3 3 0 2 3 2 2 4 6 6 8 11 8 11 10 9 9 8 9 9 10 11 11 10 9 7 6 5 3 2 2 2 3 4 5 6 6 7 8 7 8 8 7 6 6 6 5
2 3 4 2 1 2 3 2 2 3 5 5 4 7 9 11 9 9 9 7 7 7 6 7 10 9 9 9 7 4 2 1 2 3 4 6 6 7 7 8 8 8 9 9 9 8 8 8 7
3 3 5 2 2 2 3 2 2 3 4 4 3 6 9 12 10 9 8 7 6 5 4 4 5 7 7 9 8 5 3 3 3 4 6 7 9 10 10 9 8 8 9 9 9 10 10 10 8
3 2 3 2 1 3 4 3 2 2 4 4 7 10 14 16 12 9 7 6 5 5 3 5 3 4 3 2 7 4 5 6 6 6 8 8 8 7 9 8 8 9 10 10 10 11 11 11 10
3 2 3 1 2 1 3 3 4 3 4 5 10 13 15 13 11 10 8 7 6 5 3 4 3 4 3 2 4 1 1 1 3 1 2 4 6 5 4 4 8 9 10 11 11 12 12 10 8
4 4 3 1 1 1 2 2 2 2 2 5 11 13 12 11 9 9 7 6 6 5 4 4 2 3 2 2 3 1 1 1 2 4 4 4 5 4 3 2 5 8 10 8 7 9 8 7 6
6 5 3 2 2 1 1 1 1 0 1 5 11 14 12 10 8 6 6 6 6 6 4 4 3 3 4 4 2 1 1 1 1 2 5 3 1 3 2 1 1 2 3 3 3 3 5 5 7
9 5 3 2 1 2 2 2 2 3 3 6 11 12 10 9 8 6 5 6 6 6 5 5 4 6 5 3 2 2 2 1 1 3 3 3 2 3 3 2 1 2 1 1 1 3 3 4 4
6 5 3 3 4 4 4 4 5 4 5 7 9 10 10 8 7 7 6 5 6 6 5 6 4 4 3 3 3 3 2 0 2 3 4 4 3 2 3 4 3 2 2 2 2 3 2 3 4
6 4 5 6 6 4 4 6 7 5 6 8 9 10 9 8 7 5 6 5 5 6 6 7 3 3 5 6 6 3 2 3 3 3 5 6 4 3 2 3 4 3 4 3 2 3 1 2 3
6 6 5 5 7 5 4 5 5 6 7 8 9 9 9 8 8 7 6 5 6 5 6 7 3 4 5 4 3 3 3 3 2 3 6 8 8 7 3 4 4 4 4 3 2 2 2 2 2
6 7 6 5 7 6 6 5 4 7 8 9 9 9 11 10 9 8 7 6 6 5 6 7 6 2 4 3 1 0 2 1 1 4 5 7 9 9 4 3 3 4 3 3 4 2 1 2 2
4 4 3 2 4 5 6 7 5 8 9 9 9 10 11 11 11 9 8 7 7 4 5 8 6 2 4 2 1 2 2 2 2 3 4 5 5 7 5 4 3 3 3 4 4 4 3 2 3
4 2 2 1 2 4 8 9 8 9 10 9 9 10 11 11 11 11 10 9 7 6 4 8 5 4 4 3 1 2 2 2 2 2 4 3 4 6 4 4 5 4 3 4 4 3 3 3 2
5 4 4 2 2 4 8 11 10 11 12 11 10 10 10 9 10 11 11 9 7 7 5 6 6 5 5 3 1 1 1 1 1 1 2 3 5 5 6 5 5 4 3 3 4 4 2 3 2
6 4 3 4 6 8 10 10 10 8 8 8 8 7 7 9 10 13 12 10 8 7 7 5 6 6 6 4 1 2 1 2 1 1 2 1 1 3 4 5 5 4 3 3 3 4 3 2 3
4 3 3 5 7 6 8 7 7 5 7 7 7 6 6 5 7 11 12 10 10 8 7 7 7 6 6 4 3 1 1 1 1 1 1 1 2 2 2 4 4 4 3 3 4 4 3 3 3
2 3 6 8 9 10 11 8 3 5 6 7 8 8 7 6 8 10 11 10 9 9 8 6 7 6 5 4 5 2 1 1 1 1 1 1 2 1 1 2 4 4 3 3 4 3 3 2 2
2 7 10 10 8 9 8 5 3 2 4 4 5 7 8 7 7 9 10 10 9 9 8 7 7 6 6 3 3 4 2 0 1 1 0 2 1 1 2 1 3 3 4 4 4 4 3 2 2
6 7 4 4 3 4 4 3 1 6 7 4 2 3 7 8 8 9 10 10 10 10 9 8 8 7 7 6 5 4 4 3 3 1 0 2 1 1 3 2 3 2 3 3 3 4 3 2 2
7 8 5 3 5 6 6 3 4 8 7 4 2 1 1 6 8 10 11 11 10 10 10 9 8 7 7 6 6 4 5 3 1 1 1 2 1 2 2 1 2 1 2 3 3 3 3 3 3
6 6 7 7 10 10 5 1 5 7 7 5 4 5 5 5 7 9 11 11 11 11 10 9 9 8 8 7 6 5 3 3 1 1 2 0 0 2 2 2 2 1 1 1 3 2 3 3 2
8 8 5 5 5 7 7 5 3 5 3 2 3 6 7 7 8 9 10 11 11 11 10 10 9 8 8 7 5 4 2 3 2 2 1 1 1 2 1 2 2 0 1 1 1 2 2 3 1
9 8 7 6 6 6 6 5 3 3 4 2 2 3 6 8 8 9 9 10 10 11 11 10 9 8 8 7 6 6 5 4 4 3 2 2 2 1 2 2 2 1 1 1 2 1 1 3 3
6 8 8 6 7 7 8 6 0 4 4 2 2 2 4 6 8 9 10 10 10 11 11 11 10 9 8 7 6 6 6 5 5 4 4 4 3 2 2 2 0 1 1 1 1 1 1 1 1
Wind_Direction
171 171 182 197 230 234 251 142 83 39 35 27 33 55 69 56 54 86 108 73 94 107 111 103 97 93 90 88 88 87 83 78 70 60 54 39 13 355 352 353 345 341 342 345 353 359 5 9 8
181 168 194 220 238 236 149 104 89 77 49 12 52 63 75 70 74 91 93 82 99 104 103 98 94 89 86 86 84 81 80 77 70 62 49 38 15 351 335 332 330 325 326 328 332 336 344 351 353
186 199 223 223 243 262 118 112 118 107 65 35 71 67 57 65 77 93 116 110 98 95 96 95 93 89 86 83 82 80 78 74 72 65 47 26 8 342 328 325 321 319 321 323 322 317 317 320 332
176 208 239 240 264 13 115 125 126 125 96 61 76 77 71 60 85 113 120 111 102 101 99 99 95 91 88 84 81 80 75 66 63 50 11 315 304 303 303 301 297 293 293 294 299 291 292 294 296
203 231 245 251 276 87 104 135 145 88 82 69 78 92 90 89 104 112 109 104 107 110 112 114 111 106 98 89 79 70 63 54 46 17 320 289 275 269 273 275 275 274 272 277 285 284 281 283 289
217 238 257 276 209 105 99 100 91 88 87 84 101 105 105 116 112 109 105 99 102 111 119 127 131 128 122 108 92 75 55 24 346 320 295 280 272 264 257 259 262 264 266 266 269 272 273 275 281
241 263 269 284 137 111 101 91 49 91 80 62 70 104 125 127 122 119 112 102 99 101 111 129 144 140 138 130 118 108 89 11 314 291 283 279 273 265 257 252 253 257 260 262 260 258 259 260 262
239 294 298 329 113 119 117 116 76 71 92 73 61 98 136 137 136 127 124 128 124 114 111 110 118 118 135 147 143 152 174 213 246 255 262 268 270 262 252 247 240 247 254 256 258 257 255 252 248
251 263 293 320 101 127 136 143 117 92 98 89 70 85 123 137 143 143 147 148 134 120 124 116 103 96 97 164 133 172 199 211 240 242 243 261 266 258 239 229 226 239 248 252 256 254 250 248 242
220 254 289 314 52 121 158 168 154 161 134 124 105 108 126 145 156 162 168 157 142 138 121 104 108 115 120 48 96 81 81 174 256 328 276 268 282 282 275 209 227 238 246 250 251 252 248 243 235
224 241 276 266 104 234 155 163 185 162 165 154 141 139 147 160 168 169 163 137 124 115 91 78 72 116 109 102 69 25 16 5 1 17 344 327 326 320 299 216 219 230 238 236 240 239 237 226 218
248 254 270 335 68 274 161 201 189 122 66 122 135 144 156 171 174 168 152 126 122 102 89 68 22 44 65 64 13 250 91 52 22 23 1 0 341 321 336 316 285 261 243 207 222 228 237 229 221
236 248 242 268 225 247 231 223 240 201 150 130 135 148 162 175 171 156 137 130 126 116 119 90 42 35 40 73 281 9 63 37 35 51 356 5 351 338 338 305 289 290 305 267 270 249 240 233 235
227 218 236 243 225 223 226 237 235 214 167 150 154 162 175 174 173 158 152 153 138 130 127 103 68 50 23 36 21 33 10 80 45 47 7 22 17 337 326 322 333 329 316 289 277 266 253 236 236
231 227 233 226 226 219 228 238 225 216 185 173 177 179 174 172 173 182 160 160 136 132 120 107 105 75 54 37 9 1 351 38 41 34 14 17 14 347 347 346 349 335 321 319 307 297 289 264 258
216 229 240 226 210 203 228 259 213 188 191 195 195 181 172 177 188 186 156 154 127 124 113 108 87 74 79 65 0 342 24 36 19 25 34 12 3 1 8 357 345 325 328 327 303 279 299 289 277
217 226 225 205 201 196 215 263 192 181 197 204 201 189 180 184 198 179 156 154 123 120 120 117 97 72 88 84 235 37 43 44 19 47 46 13 358 2 7 342 329 344 342 337 321 348 318 300 292
237 257 259 208 180 219 232 255 227 198 210 216 203 201 192 192 188 172 152 140 126 133 131 114 117 121 93 92 355 63 61 5 40 60 59 19 349 3 353 328 354 358 354 342 336 335 321 294 277
278 292 285 278 183 238 256 259 249 215 207 217 214 209 204 194 178 159 150 143 149 156 145 122 132 127 107 79 27 32 43 357 51 56 64 7 2 3 342 351 348 356 353 346 339 335 331 313 289
274 296 289 295 256 261 272 270 255 226 209 208 221 213 205 189 169 152 150 149 165 157 147 137 135 113 103 100 50 142 80 308 99 69 80 32 19 7 352 360 347 349 339 352 346 346 347 325 331
240 254 275 312 302 279 275 271 259 225 197 193 209 230 224 189 176 159 158 156 163 158 152 146 127 132 119 130 89 30 13 287 52 48 80 53 43 22 2 341 340 338 352 357 342 5 358 333 329
251 309 297 285 290 288 274 288 269 204 172 185 193 213 231 194 164 153 156 159 163 159 151 149 136 125 123 133 103 12 290 47 64 35 86 300 100 59 18 339 337 340 358 2 355 15 347 347 343
241 281 283 276 276 280 273 275 283 151 173 181 181 193 205 191 165 156 155 158 160 151 145 142 132 129 128 128 133 225 333 26 34 15 59 336 123 151 98 4 340 341 2 14 8 4 359 5 4
289 268 260 253 260 270 268 277 303 113 98 105 150 175 182 180 165 156 149 146 145 137 139 140 138 136 136 156 175 199 159 228 279 287 37 309 214 141 95 32 336 350 17 15 4 347 353 7 14
241 265 283 277 246 276 280 263 243 83 76 63 72 151 168 169 169 157 150 150 147 146 150 155 155 156 164 184 205 196 177 212 235 206 154 280 310 95 79 32 340 19 14 353 357 336 336 356 20
228 253 270 306 308 303 283 248 118 106 104 103 104 82 125 166 167 161 157 157 156 158 161 171 170 170 173 194 209 200 180 200 202 148 264 260 18 80 78 14 330 26 18 352 358 330 343 6 7
264 252 277 286 287 292 298 324 126 123 133 153 182 180 194 188 163 162 160 162 163 168 172 179 176 178 180 197 202 201 185 164 147 208 242 227 48 88 63 297 280 165 116 27 358 339 359 357 12
270 301 304 289 302 304 311 326 47 97 85 118 184 191 194 182 170 170 165 169 171 174 176 181 183 186 181 189 198 177 169 157 163 245 319 21 349 92 249 281 298 243 150 163 116 337 342 332 332
219 242 261 277 277 288 303 316 344 66 73 33 297 200 181 173 173 172 168 173 173 171 173 179 185 189 179 184 190 173 178 187 193 197 180 210 254 207 245 240 280 11 19 31 125 247 339 341 337
273 271 276 280 290 301 297 293 86 118 132 177 265 258 190 172 170 169 168 171 175 176 178 182 187 185 175 180 187 178 169 185 207 193 188 210 208 204 249 255 223 56 8 342 7 319 325 288 324
Height
1502 1503 1506 1508 1510 1511 1508 1500 1494 1493 1492 1491 1490 1489 1494 1499 1504 1515 1515 1513 1513 1513 1513 1514 1515 1516 1517 1518 1518 1519 1520 1521 1522 1523 1524 1524 1525 1526 1527 1527 1527 1528 1528 1528 1529 1528 1528 1529 1529
1502 1504 1508 1508 1510 1513 1508 1497 1495 1494 1493 1492 1491 1492 1496 1503 1508 1511 1513 1514 1514 1514 1514 1514 1515 1516 1517 1517 1518 1519 1520 1521 1521 1522 1523 1523 1524 1525 1526 1526 1527 1527 1528 1528 1528 1528 1528 1528 1529
1502 1504 1507 1506 1506 1506 1504 1495 1493 1493 1493 1492 1493 1495 1501 1507 1510 1512 1513 1514 1515 1514 1514 1515 1515 1516 1517 1517 1518 1518 1519 1520 1520 1521 1522 1522 1523 1523 1524 1525 1525 1526 1526 1527 1527 1527 1527 1527 1528
1503 1505 1506 1505 1503 1495 1493 1492 1492 1492 1493 1493 1493 1499 1506 1509 1511 1513 1514 1515 1515 1515 1515 1516 1516 1516 1516 1517 1517 1518 1518 1518 1519 1519 1520 1520 1521 1521 1522 1523 1523 1524 1525 1525 1525 1525 1526 1526 1527
1503 1504 1504 1503 1498 1492 1489 1490 1491 1491 1492 1493 1495 1502 1509 1512 1512 1514 1515 1516 1516 1516 1516 1516 1516 1516 1516 1516 1516 1517 1517 1517 1517 1517 1518 1518 1518 1519 1520 1520 1521 1522 1522 1523 1523 1523 1524 1525 1525
1503 1502 1505 1504 1499 1491 1489 1490 1491 1492 1493 1494 1497 1502 1510 1512 1513 1515 1516 1516 1517 1517 1517 1516 1516 1516 1516 1516 1516 1516 1516 1515 1516 1516 1516 1516 1516 1516 1517 1517 1518 1519 1520 1520 1521 1521 1521 1522 1523
1503 1501 1501 1498 1498 1494 1491 1492 1492 1493 1494 1496 1497 1501 1509 1512 1514 1515 1516 1517 1518 1518 1518 1517 1517 1516 1516 1516 1515 1515 1515 1514 1514 1514 1514 1514 1514 1514 1514 1515 1515 1516 1517 1517 1518 1519 1519 1519 1520
1500 1501 1498 1496 1497 1496 1491 1492 1493 1494 1495 1498 1498 1501 1507 1511 1513 1515 1516 1517 1518 1518 1518 1518 1518 1517 1516 1515 1515 1515 1514 1513 1513 1513 1513 1512 1512 1512 1512 1513 1513 1514 1514 1515 1515 1516 1516 1517 1518
1499 1502 1502 1497 1495 1494 1491 1492 1494 1495 1496 1498 1499 1502 1506 1510 1513 1515 1516 1517 1518 1518 1518 1518 1518 1518 1517 1517 1516 1515 1514 1513 1512 1512 1512 1511 1511 1511 1511 1511 1511 1511 1511 1512 1512 1513 1513 1514 1515
1498 1502 1499 1491 1491 1491 1491 1492 1493 1494 1496 1498 1501 1504 1507 1510 1512 1514 1515 1516 1517 1518 1518 1518 1518 1517 1517 1517 1516 1515 1514 1513 1513 1512 1512 1511 1511 1511 1511 1510 1510 1510 1509 1509 1510 1510 1510 1511 1512
1495 1495 1492 1489 1490 1490 1491 1492 1493 1494 1497 1497 1500 1504 1507 1510 1511 1513 1514 1516 1517 1518 1518 1518 1518 1517 1517 1516 1516 1515 1514 1513 1513 1512 1511 1511 1510 1510 1510 1509 1509 1508 1508 1508 1507 1507 1508 1508 1509
1492 1490 1490 1489 1490 1491 1492 1492 1493 1494 1496 1497 1499 1502 1506 1508 1510 1512 1513 1515 1516 1517 1518 1518 1518 1517 1517 1516 1515 1515 1514 1513 1512 1512 1511 1510 1509 1509 1509 1508 1508 1508 1507 1507 1506 1506 1506 1506 1507
1490 1489 1489 1489 1490 1491 1492 1492 1493 1494 1496 1497 1500 1502 1505 1507 1509 1511 1512 1514 1515 1516 1517 1517 1517 1516 1516 1515 1514 1515 1514 1513 1512 1511 1510 1509 1509 1508 1507 1507 1507 1506 1506 1505 1505 1505 1505 1505 1505
1486 1486 1487 1488 1489 1490 1491 1492 1492 1493 1495 1497 1499 1502 1504 1506 1508 1510 1511 1513 1514 1515 1516 1515 1516 1516 1515 1515 1514 1513 1513 1513 1512 1510 1510 1509 1508 1507 1506 1506 1505 1505 1504 1504 1504 1503 1503 1503 1503
1483 1485 1486 1486 1487 1488 1490 1491 1490 1491 1493 1496 1498 1500 1502 1505 1507 1509 1510 1512 1513 1514 1514 1514 1515 1515 1514 1513 1513 1513 1513 1512 1511 1510 1510 1509 1508 1507 1506 1505 1504 1503 1503 1502 1502 1502 1501 1501 1501
1482 1486 1491 1485 1485 1487 1492 1496 1487 1489 1491 1494 1496 1497 1500 1503 1505 1507 1508 1511 1512 1513 1513 1513 1514 1514 1513 1512 1512 1512 1511 1511 1510 1510 1509 1508 1507 1506 1505 1503 1503 1502 1502 1501 1501 1500 1500 1500 1499
1485 1491 1491 1486 1482 1483 1488 1491 1485 1486 1489 1491 1493 1495 1497 1500 1503 1504 1507 1509 1510 1512 1512 1512 1512 1513 1512 1511 1511 1511 1511 1510 1510 1509 1508 1507 1506 1505 1504 1503 1502 1501 1500 1500 1499 1499 1498 1498 1498
1493 1489 1489 1487 1483 1483 1486 1486 1483 1484 1486 1487 1489 1491 1493 1495 1499 1501 1504 1507 1509 1511 1511 1511 1511 1512 1511 1511 1511 1510 1510 1510 1509 1508 1507 1506 1505 1504 1503 1502 1501 1500 1499 1498 1498 1497 1497 1497 1497
1484 1487 1491 1486 1481 1483 1484 1482 1479 1479 1481 1483 1485 1487 1489 1492 1494 1497 1501 1504 1507 1509 1510 1510 1510 1511 1510 1510 1510 1510 1509 1509 1508 1508 1506 1505 1505 1503 1503 1501 1500 1499 1498 1498 1497 1496 1496 1496 1497
1484 1488 1489 1484 1480 1482 1482 1478 1473 1472 1474 1477 1480 1482 1484 1487 1491 1494 1498 1501 1505 1507 1508 1509 1509 1509 1509 1509 1509 1509 1508 1508 1508 1507 1506 1505 1504 1503 1502 1501 1500 1499 1498 1497 1497 1496 1495 1495 1496
1485 1488 1489 1488 1482 1479 1481 1480 1471 1466 1469 1472 1476 1479 1481 1484 1487 1491 1495 1498 1502 1505 1506 1507 1508 1508 1508 1508 1508 1508 1508 1507 1507 1507 1506 1504 1503 1502 1501 1500 1499 1499 1498 1497 1496 1496 1495 1495 1495
1488 1482 1482 1485 1489 1490 1482 1492 1472 1464 1467 1470 1473 1477 1480 1482 1485 1488 1492 1496 1499 1502 1504 1506 1506 1507 1506 1507 1507 1507 1507 1507 1506 1506 1505 1504 1503 1502 1501 1500 1499 1498 1497 1497 1496 1496 1495 1495 1495
1482 1480 1480 1481 1485 1487 1480 1485 1474 1463 1468 1468 1470 1474 1477 1480 1483 1487 1490 1493 1497 1499 1502 1504 1504 1505 1505 1505 1505 1506 1506 1506 1506 1505 1505 1504 1503 1502 1501 1500 1499 1498 1497 1496 1496 1495 1495 1495 1495
1477 1479 1479 1479 1484 1496 1480 1483 1481 1467 1467 1466 1468 1471 1475 1478 1482 1485 1488 1491 1495 1497 1499 1501 1502 1503 1503 1504 1504 1504 1505 1505 1505 1504 1504 1504 1503 1502 1501 1500 1499 1498 1497 1496 1495 1495 1495 1495 1495
1479 1487 1497 1499 1500 1496 1472 1477 1476 1464 1463 1466 1468 1470 1473 1476 1479 1483 1486 1489 1492 1494 1496 1498 1500 1501 1501 1502 1503 1503 1503 1503 1504 1504 1504 1503 1503 1502 1501 1499 1499 1498 1496 1496 1495 1495 1495 1495 1495
1478 1482 1501 1514 1509 1493 1475 1476 1468 1460 1462 1466 1469 1471 1472 1474 1477 1480 1483 1486 1489 1491 1493 1496 1497 1498 1499 1500 1501 1502 1503 1502 1503 1503 1503 1503 1502 1501 1500 1499 1498 1497 1496 1495 1495 1495 1495 1495 1495
1477 1479 1475 1487 1489 1492 1479 1468 1462 1459 1462 1465 1468 1470 1472 1473 1476 1478 1481 1484 1486 1489 1491 1493 1495 1496 1497 1498 1500 1501 1501 1501 1502 1501 1502 1502 1501 1500 1499 1499 1498 1497 1496 1495 1495 1494 1494 1494 1494
1474 1474 1479 1488 1500 1504 1490 1478 1475 1467 1465 1464 1466 1468 1469 1472 1474 1476 1479 1481 1484 1486 1488 1490 1492 1494 1495 1496 1498 1499 1499 1500 1500 1500 1500 1500 1500 1499 1499 1498 1498 1497 1496 1496 1495 1494 1494 1494 1494
1475 1478 1478 1482 1485 1498 1503 1490 1462 1462 1462 1463 1464 1465 1467 1469 1471 1474 1476 1479 1481 1483 1485 1488 1489 1491 1493 1494 1495 1497 1497 1498 1498 1498 1499 1499 1499 1498 1498 1498 1498 1497 1497 1496 1495 1494 1494 1493 1493
1469 1472 1476 1489 1490 1486 1494 1486 1457 1458 1459 1461 1462 1463 1464 1466 1468 1470 1473 1476 1478 1480 1482 1484 1486 1488 1490 1491 1493 1494 1495 1496 1496 1497 1497 1497 1498 1498 1497 1498 1497 1497 1496 1496 1495 1494 1494 1493 1493